Location: *
(13.2257°S, 48.7193°W)
Time: 13:56:59
(UTC+00:00)

Delta 198 - Pass Details

Date: 13 February 2026
Orbit: 449 x 917 km, 24.8° (Epoch: 10 March)

Event Time Altitude Azimuth Distance (km) Brightness Sun altitude
Exits shadow 07:50:00 59° 294° (WNW) 618 3.2 -20.1°
Maximum altitude 07:50:43 89° 14° (NNE) 531 3.1 -20.0°
Drops below altitude 10° 07:54:34 10° 112° (ESE) 1,675 7.0 -19.1°
Sets 07:56:39 0° 112° (ESE) 2,513 8.4 -18.6°
